Home   Weather   Bridgetown   Past weeks
Flag for Barbados

Past Weather in Bridgetown, Barbados — Yesterday and Last 2 Weeks

Now
79 °F

Partly cloudy.


Feels Like: 81 °F
Forecast: N/A
Wind: 23 mph from East

Location: Grantley Adams

Current Time: Dec 15, 2018 at 7:39:06 pm

Latest Report: Dec 15, 2018 at 7:00 pm


Visibility: N/A

Pressure: 30.04 "Hg

Humidity: 74%

Dew Point: 70 °F

Location of BridgetownLocation

Past Weather in Bridgetown — Graph

°F

Bridgetown Temperature Yesterday

Maximum temperature yesterday: 84 °F (at 10:00 am)
Minimum temperature yesterday: 79 °F (at 12:00 am)
Average temperature yesterday: 81 °F

High & Low Weather Summary for the Past Weeks

 TemperatureHumidityPressure
High86 °F (Dec 1, 12:00 pm)94% (Dec 4, 4:00 am)30.12 "Hg (Dec 4, 4:00 am)
Low73 °F (Dec 3, 6:00 am)55% (Dec 5, 9:00 am)29.86 "Hg (Dec 3, 3:00 pm)
Average80 °F71%29.99 "Hg
* Reported Nov 30 6:00 pm — Dec 15 6:00 pm, Bridgetown. Weather by CustomWeather, © 2018

Note: Actual official high and low records may vary slightly from our data, if they occured in-between our weather recording intervals... More about our weather records

Advertising

Bridgetown Weather History for the Previous 24 Hours

Scroll right to see more
 ConditionsComfort  
Time TempWeatherWind HumidityBarometerVisibility
6:00 pm
Sat, Dec 15
77 °FRain showers. Partly cloudy.24 mph79%30.04 "Hg4 mi
5:08 pm75 °FLots of rain. Partly sunny.16 mph89%30.04 "Hg1 mi
5:00 pm77 °FScattered showers. Broken clouds.20 mph79%30.04 "HgN/A
4:35 pm77 °FRain showers. Partly sunny.23 mph83%30.04 "Hg5 mi
4:00 pm81 °FScattered clouds.21 mph74%30.04 "HgN/A
3:00 pm77 °FSprinkles. Broken clouds.15 mph83%30.04 "HgN/A
2:00 pm79 °FScattered clouds.15 mph74%30.04 "HgN/A
1:15 pm77 °FRain showers. Broken clouds.24 mph83%30.07 "Hg5 mi
1:00 pm81 °FScattered showers. Partly sunny.21 mph74%30.07 "HgN/A
12:00 pm84 °FPassing clouds.23 mph62%30.09 "HgN/A
11:00 am84 °FPassing clouds.25 mph62%30.09 "HgN/A
10:00 am84 °FPassing clouds.25 mph58%30.12 "HgN/A
9:00 am84 °FPassing clouds.24 mph58%30.12 "HgN/A
8:00 am82 °FScattered clouds.23 mph66%30.09 "HgN/A
7:00 am81 °FScattered showers. Scattered clouds.25 mph70%30.07 "HgN/A
6:00 am79 °FPassing clouds.21 mph70%30.04 "HgN/A
5:00 am79 °FPassing clouds.21 mph74%30.04 "HgN/A
4:00 am79 °FPassing clouds.22 mph70%30.04 "HgN/A
3:00 am79 °FPassing clouds.22 mph70%30.04 "HgN/A
2:00 am79 °FPassing clouds.22 mph70%30.04 "HgN/A
1:00 am79 °FPassing clouds.22 mph70%30.04 "HgN/A
12:00 am79 °FPassing clouds.21 mph70%30.07 "HgN/A
11:00 pm
Fri, Dec 14
79 °FPassing clouds.21 mph65%30.07 "HgN/A
10:00 pm79 °FPassing clouds.22 mph65%30.07 "HgN/A
9:00 pm79 °FPassing clouds.21 mph70%30.07 "HgN/A
8:00 pm79 °FPassing clouds.23 mph70%30.07 "HgN/A
7:00 pm79 °FPassing clouds.22 mph74%30.04 "HgN/A
Weather by CustomWeather, © 2018

See weather overview